Regional Weather Roundup
Issued by NWS Cleveland, OH

Home | Current Version | Previous Version | Graphics & Text | Print | Product List | Glossary On
Versions: 1 2 3 4 5 6 7 8 9 10 11 12 13 14 15 16 17 18 19 20 21 22 23 24 25 26 27 28 29 30 31 32 33 34 35 36 37 38 39 40 41 42 43 44 45 46 47 48 49 50
000
ASUS41 KCLE 240602
RWRCLE
OHIO REGIONAL WEATHER ROUNDUP
NATIONAL WEATHER SERVICE CLEVELAND, OH
200 AM EDT WED MAY 24 2017

NOTE: "FAIR" INDICATES FEW OR NO CLOUDS BELOW 12,000 FEET WITH NO
SIGNIFICANT WEATHER AND/OR OBSTRUCTIONS TO VISIBILITY.

OHZ001>008-015>018-024>027-034-035-043-044-240700-
   NORTHWEST OHIO

CITY           SKY/WX    TMP DP  RH WIND       PRES   REMARKS
DEFIANCE       CLOUDY    59  49  69 NE5       29.64F
FINDLAY        PTCLDY    60  49  66 E5        29.63S
TOLEDO EXPRESS MOCLDY    59  50  72 NE9       29.64F
TOLEDO EXEC    CLOUDY    61  52  72 NE3       29.65F
LIMA           CLOUDY    58  55  90 E5        29.63S
$$

OHZ009>014-019>023-028>033-038-089-240700-
   NORTHEAST OHIO

CITY           SKY/WX    TMP DP  RH WIND       PRES   REMARKS
CLE-HOPKINS    MOCLDY    64  51  62 SE7       29.68F
CLE-LAKEFRONT  PTCLDY    65  50  58 SE9       29.65F
CUY CO. ARPT   NOT AVBL
LORAIN-ELYRIA  CLOUDY    59  51  75 SW5       29.66F
ASHTABULA      PTCLDY    55  50  83 SE3       29.70S
AKRON-CANTON   CLOUDY    63  53  70 S6        29.68F
WOOSTER        CLOUDY    61  57  87 SE5       29.67F
MANSFIELD      PTCLDY    61  58  90 S10       29.65F
YOUNGSTOWN     CLOUDY    59  50  72 SE7       29.70F
$$

OHZ042-051>053-060>062-070>072-077>081-240700-
  SOUTHWEST OHIO

CITY           SKY/WX    TMP DP  RH WIND       PRES   REMARKS
CINC-COVINGTON CLOUDY    63  58  83 S6        29.61F
CINC-LUNKEN    CLOUDY    64  60  87 CALM      29.62F
HAMILTON       CLOUDY    66  59  78 CALM      29.62F
DAYTON         CLOUDY    63  55  75 S5        29.63F
WRIGHT-PAT AFB CLOUDY    62  57  83 CALM      29.63F
DAYTON GENERAL CLOUDY    62  57  83 SE7       29.62F
WILMINGTON     CLOUDY    61  60  97 SE6       29.63F
$$

OHZ036-037-039>041-045>050-054>059-063>069-073>076-082>088-240700-
  CENTRAL AND SOUTHEAST OHIO

CITY           SKY/WX    TMP DP  RH WIND       PRES   REMARKS
COLUMBUS       CLOUDY    63  60  90 SE5       29.64F
OSU AIRPORT    CLOUDY    64  61  90 S8        29.65F
BOLTON FIELD   MOCLDY    62  60  94 SE3       29.65F
RICKENBACK AFB MOCLDY    61  60  97 CALM      29.64S
NEWARK         CLOUDY    63  58  83 SE5       29.65F
MARION         CLOUDY    63  56  78 S9        29.65S
LANCASTER      CLOUDY    64  59  83 S6        29.65F
ZANESVILLE     CLOUDY    62  59  90 E5        29.66F
NEW PHILLY     NOT AVBL
$$




USA.gov is the U.S. government's official web portal to all federal, state and local government web resources and services.